Weather in Kamari

Greece     36°22′45″N   25°28′32″E
temp.,
°C
wind,
m/s
gust,
m/s
humid.,
%
clouds,
%
prec.,
mm/h
press.,
hPa
HPBL,
m
23 april, fri
fri2300:00+17w346051 0.0 102197
03:00+17wnw3464100 0.0 1020149
06:00+17nnw2262100 0.0 101954
09:00+17e226168 0.0 102025
12:00+18ese33651 0.0 1021172
15:00+18e12505 0.0 1020165
18:00+19ne446093 0.0 1019184
21:00+18ene4561100 0.0 101855
24 april, sat
sat2400:00+18ne4461100 0.0 101841
03:00+18nne6774100 0.0 1017143
06:00+18n587832 0.0 1015163
09:00+17n7985100 0.0 1016277
12:00+18nne91380100 0.0 1015308
15:00+18nne7980100 0.0 1014297
18:00+17nne91284100 0.0 1012365
21:00+17nne131586100 0.0 1012434
25 april, sun
sun2500:00+17n131485100 0.0 1012576
03:00+17nne121584100 0.0 1010586
06:00+16nne131687100 0.0 1010535
09:00+16n121481100 0.0 1011704
12:00+16nnw12127724 0.6 1012847
15:00+15nnw14157838 0.6 1011836
18:00+15nnw16178092 0.0 1011886
21:00+15nnw161875100 0.0 10131040
26 april, mon
mon2600:00+15nnw16187399 0.0 10131137
03:00+15nnw161874100 0.0 10131139
06:00+15nnw15177329 0.0 10131031
09:00+15nnw1416700 0.0 1014942
12:00+16nnw1214620 0.0 1015925
15:00+16nnw1112600 0.0 1016910
18:00+16nnw1111570 0.0 1015805
21:00+16nnw910600 0.0 1016630
27 april, tue
tue2700:00+16nnw89610 0.0 1016570
03:00+16nw56560 0.0 1015441
06:00+16nw23525 0.0 1013261
09:00+17nw45555 0.0 1015333
12:00+17nw445890 0.0 1016311
15:00+17w22585 0.0 1015215
18:00+18wsw115897 0.0 1014144
21:00+18sse1170100 0.0 101411